EHI
0 0 0 1 5 8 7 7 7 4 2 1 1 1 2 3 3 2 2 1 0 0 0 0 0 0 0 0 0 0 0 0 0 0 0 0 0 0
0 0 0 1 3 5 5 5 6 4 3 2 2 1 1 1 1 1 1 0 0 0 0 0 0 0 0 0 0 0 0 0 0 0 0 0 0 0
0 0 0 0 1 1 1 2 4 4 3 3 2 1 0 0 0 0 0 0 0 0 0 0 0 0 0 0 0 0 0 0 0 0 0 0 0 0
0 0 0 0 0 0 0 1 3 4 4 2 1 0 0 0 0 0 0 0 0 0 0 0 0 0 0 0 0 0 0 0 0 0 0 0 0 0
0 0 0 0 0 0 0 1 2 3 3 2 1 0 0 0 0 0 0 0 0 0 0 0 0 0 0 0 0 0 0 0 0 0 0 0 0 0
0 0 0 0 0 0 0 0 1 2 3 2 1 0 0 0 0 0 0 0 0 0 0 0 0 0 0 0 0 0 0 0 0 0 0 0 0 0
0 0 0 0 0 0 0 0 1 1 1 1 0 0 0 0 0 0 0 0 0 0 0 0 0 0 0 0 0 0 0 0 0 0 0 0 0 0
0 0 0 0 0 0 0 0 0 0 0 0 0 0 0 0 0 0 0 0 0 0 0 0 0 0 0 0 0 0 0 0 0 0 0 0 0 0
0 0 0 0 0 0 0 0 0 0 0 0 0 0 0 0 0 0 0 0 0 0 0 0 0 0 0 0 0 0 0 0 0 0 0 0 0 0
0 0 0 0 0 0 0 0 0 0 0 0 0 0 0 0 0 0 0 0 0 0 0 0 0 0 0 0 0 0 0 0 0 0 0 0 0 0
0 0 0 0 0 0 0 0 0 0 0 0 0 0 0 0 0 0 0 0 0 0 0 0 0 0 0 0 0 0 0 0 0 0 0 0 0 0
0 0 0 0 0 0 0 0 0 0 0 0 0 0 0 0 0 0 0 0 0 0 0 0 0 0 0 0 0 0 0 0 0 0 0 0 0 0
0 0 0 0 0 0 0 0 0 0 0 0 0 0 0 0 0 0 0 0 0 0 0 0 0 0 0 0 0 0 0 0 0 0 0 0 0 0
0 0 0 0 0 0 0 0 0 0 0 0 0 0 0 0 0 0 0 0 0 0 0 0 0 0 0 0 0 0 0 0 0 0 0 0 0 0
0 0 0 0 0 0 0 0 0 0 0 0 0 0 0 0 0 0 0 0 0 0 0 0 0 0 0 0 0 0 0 0 0 0 0 0 0 0
0 0 0 0 0 0 0 0 0 0 0 0 0 0 0 0 0 0 0 0 0 0 0 0 0 0 0 0 0 0 0 0 0 0 0 0 0 0
0 0 0 0 0 0 0 0 0 0 0 0 0 0 0 0 0 0 0 0 0 0 0 0 0 0 0 0 0 0 0 0 0 0 0 0 0 0
0 0 0 0 0 0 0 0 0 0 0 0 0 0 0 0 0 0 0 0 0 0 0 0 0 0 0 0 0 0 0 0 0 0 0 0 0 0
0 0 0 0 0 0 0 0 0 0 0 0 0 0 0 0 0 0 0 0 0 0 0 0 0 0 0 0 0 0 0 0 0 0 0 0 0 0
0 0 0 0 0 0 0 0 0 0 0 0 0 0 0 0 0 0 0 0 0 0 0 0 0 0 0 0 0 0 0 0 0 0 0 0 0 0
0 0 0 0 0 0 0 0 0 0 0 0 0 0 0 0 0 0 0 0 0 0 0 0 0 0 0 0 0 0 0 0 0 0 0 0 0 0
0 0 0 0 0 0 0 0 0 0 0 0 0 0 0 0 0 0 0 0 0 0 0 0 0 0 0 0 0 0 0 0 0 0 0 0 0 0
0 0 0 0 0 0 0 0 0 0 0 0 0 0 0 0 0 0 0 0 0 0 0 0 0 0 0 0 0 0 0 0 0 0 0 0 0 0
Wind_Speed
4 4 4 4 4 5 5 5 5 4 3 2 1 1 2 3 6 6 7 11 11 11 11 10 10 9 9 9 9 8 7 8 8 8 7 6 5 5
2 3 3 3 3 4 4 5 5 4 2 1 1 3 4 4 7 6 7 12 12 12 11 10 9 9 9 9 9 8 8 7 7 7 6 5 4 3
3 3 3 3 3 3 3 3 3 3 3 2 2 4 5 6 6 6 6 6 8 12 11 10 10 9 9 8 7 7 7 6 6 5 5 4 3 2
5 4 3 2 2 1 1 2 2 3 5 7 5 5 6 6 7 7 7 7 7 11 11 10 9 7 6 6 6 6 6 5 4 4 4 4 4 4
5 4 4 3 2 1 1 2 3 5 6 7 6 5 5 6 7 7 8 5 7 9 9 9 8 7 6 6 6 5 5 4 4 3 4 4 5 5
6 6 5 4 2 1 2 3 5 7 8 8 7 7 6 6 6 7 6 5 5 6 6 6 7 7 7 7 6 6 6 6 5 5 5 6 7 7
7 7 7 7 7 4 2 4 6 6 7 8 8 8 7 7 6 5 7 6 5 4 5 5 5 5 7 8 9 9 8 8 8 8 8 9 9 9
6 6 6 6 7 7 7 5 4 6 8 7 7 8 9 8 6 6 7 6 5 4 4 4 4 4 4 5 8 10 10 9 10 10 10 11 11 11
6 6 6 6 6 7 8 8 8 6 3 5 8 8 9 8 8 7 5 5 4 5 3 3 3 3 4 5 10 9 9 10 10 11 11 12 12 12
7 7 7 7 7 6 8 9 8 7 5 4 6 6 6 6 5 5 6 6 5 3 3 2 3 3 3 4 10 10 10 10 11 11 12 12 13 13
8 9 8 8 7 5 7 9 10 8 10 11 10 9 8 6 3 4 5 5 5 5 3 2 2 2 3 4 7 12 12 12 12 13 13 13 12 12
7 8 12 9 8 7 6 8 9 8 9 9 9 8 7 6 2 1 2 3 4 4 3 2 2 2 2 3 3 6 9 12 15 14 14 14 12 10
6 7 8 9 9 9 6 8 7 6 7 7 7 7 6 5 4 3 0 0 1 2 3 2 2 2 2 2 3 4 4 5 7 10 14 15 14 12
6 7 7 8 9 8 7 6 3 1 5 5 5 5 5 4 4 3 2 1 1 1 0 2 3 3 4 4 3 3 4 5 6 6 6 7 13 16
6 7 5 4 5 7 6 2 1 2 4 5 5 4 4 4 3 3 3 3 3 3 3 3 4 4 5 5 5 4 5 5 5 6 6 7 7 8
4 5 3 3 4 5 3 2 2 4 3 4 4 4 3 3 2 1 2 2 3 3 4 4 4 5 6 6 6 6 6 6 5 6 7 7 8 9
1 3 3 4 3 4 4 4 3 3 3 3 3 2 2 2 2 1 1 2 2 1 2 3 5 5 7 7 7 7 7 7 7 6 7 9 9 9
3 2 3 3 3 3 3 3 2 3 2 2 1 1 1 1 1 1 1 2 2 2 2 2 3 4 6 6 6 7 7 7 7 7 9 10 10 9
1 2 2 2 2 2 2 2 2 2 1 0 0 0 1 1 1 1 1 2 2 3 3 3 4 5 7 6 4 5 7 8 9 9 9 10 11 11
0 2 2 1 1 1 1 1 1 1 1 1 0 1 1 1 2 2 2 2 3 4 4 4 4 5 7 8 9 8 9 9 9 10 11 11 11 12
1 1 0 0 0 0 0 0 0 0 0 1 1 2 2 3 3 3 3 2 5 5 5 5 3 3 7 8 9 9 8 8 9 9 12 13 13 13
1 1 1 1 1 1 1 1 1 1 2 2 2 2 3 3 4 4 4 5 5 5 6 6 5 6 8 9 10 11 11 10 10 15 17 15 13 14
1 2 2 2 2 3 2 2 2 2 2 3 3 3 3 4 4 5 5 6 6 6 7 7 7 7 8 9 10 11 14 14 11 11 10 12 19 23
Wind_Direction
279 271 269 268 259 252 238 227 221 213 204 182 148 95 100 94 102 108 110 106 106 107 109 112 118 125 130 133 131 131 131 132 132 133 134 134 137 139
306 297 289 276 268 255 240 235 229 218 186 141 120 107 104 102 100 106 109 114 113 114 113 111 112 115 121 122 123 126 127 128 132 133 137 143 153 160
328 309 299 292 277 265 245 223 206 182 157 131 110 110 111 110 106 104 105 108 111 114 115 114 112 114 120 125 127 129 131 133 136 141 151 163 174 193
352 341 326 317 309 293 249 187 173 162 149 139 130 120 113 116 114 110 106 107 111 117 119 121 122 127 133 139 137 137 136 137 142 157 177 194 211 229
9 8 3 7 9 37 107 140 141 134 135 134 132 125 122 127 122 113 109 113 120 127 130 136 141 145 151 152 150 152 155 165 180 198 213 223 233 243
28 25 22 22 24 70 103 124 128 128 131 134 134 131 127 135 136 132 127 128 128 137 134 139 146 158 167 173 175 179 187 199 212 223 233 239 244 249
42 40 39 40 33 35 86 126 137 137 138 139 139 139 140 148 145 143 132 133 135 148 150 157 165 179 179 188 196 199 207 215 224 231 238 244 248 250
48 51 61 60 65 62 63 75 110 140 144 146 144 144 147 145 145 148 148 148 143 156 168 160 174 183 191 193 172 187 208 221 230 236 241 245 249 251
45 47 60 64 75 92 94 94 85 87 126 143 140 147 148 148 152 154 151 141 123 144 174 162 177 193 206 169 164 193 214 227 235 241 245 248 250 251
49 52 60 60 58 75 97 94 91 82 89 115 122 128 128 135 145 135 131 130 135 152 187 189 181 198 205 182 173 201 219 230 238 244 247 249 250 252
55 49 53 69 39 32 97 101 98 94 79 79 84 94 95 98 98 142 151 159 149 152 182 215 189 208 213 208 183 198 217 228 235 241 245 248 249 253
73 71 54 48 37 30 89 101 101 102 108 109 104 113 122 121 131 179 174 161 150 149 148 229 216 229 225 207 211 203 217 221 228 235 239 242 241 249
70 70 60 43 43 38 55 83 86 100 115 119 122 126 132 141 153 151 143 138 112 113 140 217 246 246 259 248 236 234 244 245 231 233 229 231 229 234
63 70 69 55 57 52 68 75 74 115 122 119 119 122 125 124 121 124 115 51 8 29 223 277 282 285 283 278 270 257 258 261 263 266 266 223 223 230
65 63 68 81 102 92 84 69 235 127 106 108 105 102 99 106 136 152 155 166 187 196 197 236 267 281 288 290 291 288 283 276 270 272 271 268 267 259
110 118 123 76 91 98 130 144 90 69 74 94 100 106 119 141 162 151 161 183 197 184 185 216 254 279 282 291 289 287 286 287 283 278 284 282 278 272
32 141 131 127 120 112 104 94 105 122 113 105 113 131 137 133 131 141 210 245 247 246 227 221 227 239 257 272 280 284 287 286 287 292 284 280 277 276
318 94 92 93 91 95 105 110 103 90 91 103 107 104 114 125 156 198 231 257 272 280 282 280 274 269 262 244 240 272 283 290 294 291 285 285 286 286
283 87 82 82 80 80 86 93 94 93 78 125 152 203 201 218 237 255 265 275 280 286 289 288 288 293 295 298 274 239 282 295 294 291 289 289 291 293
174 95 91 79 72 32 47 78 85 113 172 206 212 279 284 286 286 281 282 294 301 299 291 286 288 300 308 311 308 290 250 268 284 290 294 294 289 285
126 107 83 90 103 98 30 58 360 307 328 302 291 285 285 284 288 292 299 300 279 281 289 296 317 278 282 279 280 284 286 249 248 266 284 289 292 294
226 208 264 300 273 255 230 225 220 230 239 251 263 273 280 287 288 286 289 286 287 293 299 298 286 274 276 281 288 293 294 294 270 241 241 253 275 289
258 265 251 243 241 242 252 255 260 267 272 278 279 278 284 286 288 287 285 287 291 295 296 298 298 291 290 291 292 294 298 299 297 296 284 253 236 244